FW4829 Weather Reports


time (UTC)temp
C
wind
direction
speed
KPH
gust
KPH
rain 1hr
cm
rain 24hr
cm
rain mn
cm
humidity
%
barometer
mb
20260503220054 28 333 3.2 12.9 0.00 0.00 0.00 32 1010.4
20260503214550 28 325 1.6 9.7 0.00 0.00 0.00 32 1010.6
20260503213045 28 10 1.6 9.7 0.00 0.00 0.00 35 1010.8
20260503211540 28 315 4.8 11.3 0.00 0.00 0.00 36 1011.0
20260503210037 27 33 3.2 14.5 0.00 0.00 0.00 34 1011.1
20260503204533 27 306 6.4 14.5 0.00 0.00 0.00 39 1011.3
20260503203031 27 326 4.8 11.3 0.00 0.00 0.00 41 1011.3
20260503201525 26 34 4.8 14.5 0.00 0.00 0.00 43 1011.5
20260503200020 26 319 8.0 14.5 0.00 0.00 0.00 42 1011.7
20260503194517 25 6 3.2 11.3 0.00 0.00 0.00 47 1011.8
20260503193013 25 314 4.8 11.3 0.00 0.00 0.00 47 1012.0
20260503191507 25 13 3.2 14.5 0.00 0.00 0.00 51 1012.1
20260503190002 23 351 3.2 9.7 0.00 0.00 0.00 52 1012.2
20260503184559 23 343 3.2 11.3 0.00 0.00 0.00 56 1012.3
20260503183054 22 327 4.8 16.1 0.00 0.00 0.00 58 1012.4
20260503181548 22 327 3.2 12.9 0.00 0.00 0.00 59 1012.5
20260503180056 21 353 4.8 11.3 0.00 0.00 0.00 61 1012.6
20260503174539 21 21 3.2 11.3 0.00 0.00 0.00 64 1012.7
20260503173038 20 40 4.8 12.9 0.00 0.00 0.00 64 1012.7
20260503171535 19 342 3.2 12.9 0.00 0.00 0.00 66 1012.7
20260503140108 13 31 3.2 8.0 0.00 0.00 0.00 81 1012.8
20260503081548 16 341 6.4 16.1 0.00 0.00 0.00 78 1013.7
20260503071635 16 26 6.4 16.1 0.00 0.00 0.00 81 1013.6
20260503054524 16 330 4.8 16.1 0.00 0.00 0.00 81 1013.5
20260503053020 16 18 3.2 9.7 0.00 0.00 0.00 81 1014.0
20260503051517 16 2 1.6 4.8 0.00 0.00 0.00 80 1014.1
20260503050023 17 63 0.0 3.2 0.00 0.00 0.00 74 1014.1
20260503044517 17 316 4.8 6.4 0.00 0.00 0.00 77 1013.9
20260503043010 16 275 0.0 4.8 0.00 0.00 0.00 82 1014.1
20260503041509 16 184 1.6 6.4 0.00 0.00 0.00 82 1014.3
20260503040007 16 211 1.6 6.4 0.00 0.00 0.00 81 1014.1
20260503034505 16 333 1.6 6.4 0.00 0.00 0.00 82 1013.9
20260503033004 16 181 1.6 6.4 0.00 0.00 0.00 82 1013.7
20260503031502 16 176 3.2 12.9 0.00 0.00 0.00 81 1013.8
20260503030058 17 165 6.4 11.3 0.00 0.00 0.00 79 1013.7
20260503024557 17 190 6.4 16.1 0.00 0.00 0.00 76 1013.5
20260503023055 18 221 3.2 16.1 0.00 0.00 0.00 74 1013.5
20260503021553 19 176 4.8 8.0 0.00 0.00 0.00 73 1013.5
20260503020055 20 160 1.6 6.4 0.00 0.00 0.00 71 1013.1
20260503014605 21 203 1.6 6.4 0.00 0.00 0.00 71 1012.9
20260503013046 20 269 0.0 4.8 0.00 0.00 0.00 72 1012.7
20260503011542 20 153 3.2 4.8 0.00 0.00 0.00 72 1012.8
20260503010039 20 167 0.0 4.8 0.00 0.00 0.00 74 1012.7
20260503004537 20 207 0.0 3.2 0.00 0.00 0.00 73 1012.6
20260503003035 19 204 0.0 6.4 0.00 0.00 0.00 75 1012.7
20260503001543 19 159 1.6 6.4 0.00 0.00 0.00 74 1012.7
20260503000031 19 267 3.2 8.0 0.00 0.00 0.00 75 1012.8
20260502234536 18 219 0.0 6.4 0.00 0.00 0.00 75 1012.9
20260502233027 19 219 1.6 6.4 0.00 0.00 0.00 74 1013.1
20260502231523 20 173 0.0 4.8 0.00 0.00 0.00 71 1013.2
20260502230023 19 276 1.6 6.4 0.00 0.00 0.00 70 1013.2
20260502224517 19 308 4.8 9.7 0.00 0.00 0.00 70 1013.4
20260502223014 18 18 1.6 6.4 0.00 0.00 0.00 72 1013.8
20260502221505 17 294 3.2 14.5 0.00 0.00 0.00 73 1014.0